COSMOS 2491 DEB, 45130

Orbit data source: Space-Track

COSMOS 2491 DEB, 45130 is space debris in LEO originally from a launch on Wed, 25 Dec 2013 UTC launched from the Plesetsk Missile And Space Complex (PKMTR). Debris objects in space refer to the collection of defunct objects orbiting the Earth. Examples of debris include non-operational satellites, rocket bodies, and fragments generated from explosions, collisions, or faulty payload assembly.

Loading next visibility...
Identifier
45130, 2013-076AC
Orbit
LEO
Last TLE update
4 days ago
Origin
Manufacturer
TsNIIKhM
Mission
Spacecraft
Bus & Motor
Unknown
Mass
Unknown
Launch date (UTC)
2013-12-25 (12 years ago)
Launch vehicle
Unknown
Launch site
Plesetsk Missile And Space Complex (PKMTR)
Object type
Payload
Rocket body
Debris
Shape & HBR
Unknown
Radar Cross Section
Small (<0.1 m²)

Expand to show TLE details & history

TLE from 4 days ago
0 COSMOS 2491 DEB
1 45130U 13076AC  25178.17968000  .00003762  00000-0  17741-1 0  9993
2 45130  82.4489 336.5159 0179806 218.9710 139.8314 12.69941436249594
Epoch: 2025-06-27T04:18Z
TLE epoch observation values (Epoch: 2025-06-27T04:18:44.352Z)
Latitude
0.00001°
Longitude
-3.70515°
Altitude
1,492.583 km
Speed
7.068 km/s
True Right ascension
22h 26m 03s
True Declination
0° 00' 00"
Sunlit
Object was in daylight at epoch
Visualization orbit readout
Latitude
-8.09304°
Longitude
174.59208°
Altitude
1,255.879 km
Speed
7.287 km/s
Apparent Right ascension
09h 51m 54s
Apparent Declination
-22° 38' 41"
Sunlit
Object is in daylight
Visualization observer readout
Local Sidereal Time
21:09:33
Azimuth
329.413° NNW
Elevation
-70.538°
Doppler factor
1
Orbital elements
Apogee altitude
1,518.979 km
Perigee altitude
1,240.005 km
Semi-major axis
7,757.629 km
Eccentricity
0.01798
Inclination
82.4489°
RAAN
336.5159°
Arg. of periapsis
218.971°
True anomaly
Unknown
Mean anomaly
139.8314°
Eccentric anomaly
Unknown
Mean motion
3.17651 °/min
Orbital period
113.33 mins
BSTAR
0.017741
Loading maneuver chart data...
Loading SW <> Apogee altitude chart data...
Loading historical data...
Loading historical data...
Loading historical data...
Loading historical data...
Loading historical data...
Loading historical data...
Loading historical data...

COSMOS 2491 DEB Visibility forecast

Observer location: undefined°, undefined°

Span
Click to sort rows by Start time (UTC) header in descending order
Start Az.
Max El. time (UTC)
Max El. Az.
Max El.
End time (UTC)
End Az.
17 mins2025-07-01 10:29:15.711Z172.314° S2025-07-01 10:38:15.711Z80.731° E42.607°2025-07-01 10:46:15.711Z13.473° NNE
12 mins2025-07-01 12:27:15.711Z244.43° WSW2025-07-01 12:33:15.711Z295.441° NW24.695°2025-07-01 12:39:15.711Z343.182° N
11 mins2025-07-01 20:30:15.711Z20.51° NNE2025-07-01 20:35:15.711Z63.181° ENE22.235°2025-07-01 20:41:15.711Z116.126° SE
13 mins2025-07-01 22:24:15.711Z344.435° N2025-07-01 22:30:15.711Z281.888° WNW42.214°2025-07-01 22:37:15.711Z189.103° SSW
11 mins2025-07-02 09:14:15.711Z122.981° SE2025-07-02 09:19:15.711Z83.817° E22.212°2025-07-02 09:25:15.711Z36.578° NE
|